Weather History for Puyallup, WA

Change the Weather History Date:

Monday, July 22, 2013

  Actual Average (KTCM) Record (KTCM)
Temperature  
Mean Temperature 66 °F -  
Max Temperature 78 °F 76 °F 95 °F (2006)
Min Temperature 55 °F 52 °F 45 °F (2011)
Cooling Degree Days 2    
Growing Degree Days 16 (Base 50)    
Moisture  
Dew Point 57 °F    
Average Humidity 82    
Maximum Humidity 100    
Minimum Humidity 47    
Precipitation  
Precipitation 0.00 in - - ()
Sea Level Pressure  
Sea Level Pressure 30.04 in    
Wind  
Wind Speed 0 mph (NNW)    
Max Wind Speed 5 mph    
Max Gust Speed -    
Visibility 9 miles    
Events      
Averages and records for this station are not official NWS values.
T = Trace of Precipitation, MM = Missing Value Source: NWS Daily Summary

Daily Weather History Graph

Daily Weather History Graph

Search for Another Location

Airport:

Trip Planner

Search our weather history database for the weather conditions in past years. The results will help you decide how hot, cold, wet, or windy it might be!

Date:

Astronomy

Jul. 22, 2013 Rise Set
Actual Time 5:36 AM PDT 8:53 PM PDT
Civil Twilight 4:59 AM PDT 9:30 PM PDT
Nautical Twilight 4:11 AM PDT 10:19 PM PDT
Astronomical Twilight 3:09 AM PDT 11:20 PM PDT
Moon 8:36 PM PDT (7/22) 5:44 AM PDT (7/22)
Length of Visible Light 16h 31m
Length of Day
15h 17m
Full, 100% of the Moon is Illuminated
Jul 22
Full
Jul 29
Last Quarter
Aug 6
New
Aug 14
First Quarter
Aug 20
Full

Hourly Weather History & Observations

Time (PDT) Temp. Dew Point Humidity Pressure Visibility Wind Dir Wind Speed Gust Speed Precip Events Conditions
12:15 AM 55.4 °F 55.4 °F 100% 29.98 in 10.0 mi Calm Calm - N/A   Scattered Clouds
12:35 AM 55.4 °F 55.4 °F 100% 29.98 in 10.0 mi Calm Calm - N/A   Mostly Cloudy
12:55 AM 55.4 °F 55.4 °F 100% 29.98 in 10.0 mi Calm Calm - N/A   Mostly Cloudy
1:15 AM 57.2 °F 57.2 °F 100% 29.98 in 10.0 mi Calm Calm - N/A   Mostly Cloudy
1:35 AM 57.2 °F 55.4 °F 94% 29.99 in 10.0 mi Calm Calm - N/A   Mostly Cloudy
1:55 AM 55.4 °F 55.4 °F 100% 29.99 in 10.0 mi Calm Calm - N/A   Mostly Cloudy
2:15 AM 55.4 °F 55.4 °F 100% 29.99 in 10.0 mi Calm Calm - N/A   Mostly Cloudy
2:35 AM 55.4 °F 55.4 °F 100% 30.00 in 10.0 mi Calm Calm - N/A   Mostly Cloudy
2:55 AM 55.4 °F 55.4 °F 100% 30.00 in 10.0 mi Calm Calm - N/A   Overcast
3:15 AM 55.4 °F 55.4 °F 100% 30.00 in 10.0 mi Calm Calm - N/A   Mostly Cloudy
3:35 AM 55.4 °F 55.4 °F 100% 30.01 in 10.0 mi Calm Calm - N/A   Mostly Cloudy
3:55 AM 55.4 °F 55.4 °F 100% 30.01 in 10.0 mi Calm Calm - N/A   Mostly Cloudy
4:15 AM 55.4 °F 55.4 °F 100% 30.01 in 10.0 mi Calm Calm - N/A   Mostly Cloudy
4:35 AM 55.4 °F 55.4 °F 100% 30.01 in 5.0 mi Calm Calm - N/A   Scattered Clouds
4:55 AM 55.4 °F 55.4 °F 100% 30.01 in 2.5 mi Calm Calm - N/A   Mostly Cloudy
5:15 AM 55.4 °F 55.4 °F 100% 30.02 in 3.0 mi Calm Calm - N/A   Mostly Cloudy
5:35 AM 55.4 °F 55.4 °F 100% 30.02 in 4.0 mi Calm Calm - N/A   Mostly Cloudy
5:55 AM 55.4 °F 55.4 °F 100% 30.02 in 5.0 mi Calm Calm - N/A   Scattered Clouds
6:35 AM 55.4 °F 55.4 °F 100% 30.03 in 5.0 mi Calm Calm - N/A   Mostly Cloudy
6:55 AM 55.4 °F 55.4 °F 100% 30.04 in 7.0 mi Calm Calm - N/A   Mostly Cloudy
7:55 AM 55.4 °F 55.4 °F 100% 30.05 in 3.0 mi Calm Calm - N/A   Partly Cloudy
8:15 AM 55.4 °F 55.4 °F 100% 30.06 in 7.0 mi Calm Calm - N/A   Partly Cloudy
8:35 AM 55.4 °F 55.4 °F 100% 30.06 in 10.0 mi Calm Calm - N/A   Clear
8:55 AM 57.2 °F 55.4 °F 94% 30.07 in 10.0 mi Calm Calm - N/A   Partly Cloudy
9:15 AM 57.2 °F 55.4 °F 94% 30.07 in 9.0 mi Calm Calm - N/A   Mostly Cloudy
9:35 AM 57.2 °F 55.4 °F 94% 30.07 in 10.0 mi Calm Calm - N/A   Scattered Clouds
9:55 AM 57.2 °F 55.4 °F 94% 30.08 in 4.0 mi Calm Calm - N/A   Scattered Clouds
10:15 AM 57.2 °F 55.4 °F 94% 30.08 in 10.0 mi Calm Calm - N/A   Scattered Clouds
10:35 AM 59.0 °F 55.4 °F 88% 30.08 in 10.0 mi Calm Calm - N/A   Partly Cloudy
10:55 AM 59.0 °F 55.4 °F 88% 30.08 in 10.0 mi Calm Calm - N/A   Mostly Cloudy
11:15 AM 59.0 °F 55.4 °F 88% 30.09 in 10.0 mi Calm Calm - N/A   Overcast
11:35 AM 60.8 °F 55.4 °F 82% 30.09 in 10.0 mi Calm Calm - N/A   Mostly Cloudy
11:55 AM 62.6 °F 55.4 °F 77% 30.09 in 10.0 mi Calm Calm - N/A   Mostly Cloudy
12:15 PM 62.6 °F 55.4 °F 77% 30.09 in 10.0 mi Calm Calm - N/A   Mostly Cloudy
12:35 PM 64.4 °F 55.4 °F 73% 30.08 in 10.0 mi Calm Calm - N/A   Overcast
12:55 PM 66.2 °F 55.4 °F 68% 30.08 in 10.0 mi Calm Calm - N/A   Overcast
1:15 PM 66.2 °F 55.4 °F 68% 30.08 in 10.0 mi Calm Calm - N/A   Mostly Cloudy
1:35 PM 68.0 °F 57.2 °F 68% 30.08 in 10.0 mi Calm Calm - N/A   Scattered Clouds
1:55 PM 71.6 °F 57.2 °F 60% 30.07 in 10.0 mi Calm Calm - N/A   Scattered Clouds
2:15 PM 71.6 °F 57.2 °F 60% 30.07 in 10.0 mi Calm Calm - N/A   Scattered Clouds
2:35 PM 71.6 °F 57.2 °F 60% 30.07 in 10.0 mi Calm Calm - N/A   Mostly Cloudy
2:55 PM 71.6 °F 57.2 °F 60% 30.06 in 10.0 mi Calm Calm - N/A   Mostly Cloudy
3:15 PM 73.4 °F 57.2 °F 57% 30.06 in 10.0 mi Calm Calm - N/A   Mostly Cloudy
3:35 PM 75.2 °F 57.2 °F 53% 30.06 in 10.0 mi Calm Calm - N/A   Scattered Clouds
3:55 PM 75.2 °F 57.2 °F 53% 30.05 in 10.0 mi Calm Calm - N/A   Clear
4:15 PM 75.2 °F 57.2 °F 53% 30.05 in 10.0 mi Calm Calm - N/A   Partly Cloudy
4:35 PM 77.0 °F 57.2 °F 50% 30.04 in 10.0 mi Calm Calm - N/A   Scattered Clouds
4:55 PM 77.0 °F 57.2 °F 50% 30.04 in 10.0 mi Calm Calm - N/A   Scattered Clouds
5:15 PM 78.8 °F 57.2 °F 47% 30.03 in 10.0 mi Calm Calm - N/A   Scattered Clouds
5:35 PM 77.0 °F 59.0 °F 54% 30.03 in 10.0 mi Calm Calm - N/A   Mostly Cloudy
5:55 PM 77.0 °F 59.0 °F 54% 30.03 in 10.0 mi Calm Calm - N/A   Scattered Clouds
6:15 PM 77.0 °F 59.0 °F 54% 30.02 in 10.0 mi NNW 4.6 mph - N/A   Partly Cloudy
6:35 PM 77.0 °F 57.2 °F 50% 30.02 in 10.0 mi Calm Calm - N/A   Scattered Clouds
6:55 PM 75.2 °F 57.2 °F 53% 30.02 in 10.0 mi Calm Calm - N/A   Scattered Clouds
7:15 PM 75.2 °F 57.2 °F 53% 30.02 in 10.0 mi Calm Calm - N/A   Mostly Cloudy
7:35 PM 73.4 °F 57.2 °F 57% 30.02 in 10.0 mi Calm Calm - N/A   Mostly Cloudy
7:55 PM 73.4 °F 59.0 °F 61% 30.02 in 10.0 mi Calm Calm - N/A   Scattered Clouds
8:15 PM 71.6 °F 57.2 °F 60% 30.02 in 10.0 mi Calm Calm - N/A   Scattered Clouds
8:35 PM 68.0 °F 59.0 °F 73% 30.02 in 10.0 mi Calm Calm - N/A   Scattered Clouds
8:55 PM 66.2 °F 59.0 °F 78% 30.02 in 10.0 mi Calm Calm - N/A   Scattered Clouds
9:15 PM 64.4 °F 59.0 °F 83% 30.03 in 10.0 mi Calm Calm - N/A   Mostly Cloudy
9:35 PM 62.6 °F 59.0 °F 88% 30.03 in 10.0 mi Calm Calm - N/A   Scattered Clouds
9:55 PM 62.6 °F 59.0 °F 88% 30.04 in 10.0 mi Calm Calm - N/A   Scattered Clouds
10:15 PM 62.6 °F 59.0 °F 88% 30.04 in 10.0 mi Calm Calm - N/A   Scattered Clouds
10:35 PM 60.8 °F 59.0 °F 94% 30.04 in 10.0 mi Calm Calm - N/A   Scattered Clouds
10:55 PM 59.0 °F 59.0 °F 100% 30.04 in 10.0 mi Calm Calm - N/A   Scattered Clouds
11:15 PM 59.0 °F 59.0 °F 100% 30.05 in 10.0 mi Calm Calm - N/A   Mostly Cloudy
11:35 PM 59.0 °F 59.0 °F 100% 30.05 in 10.0 mi Calm Calm - N/A   Scattered Clouds
11:55 PM 57.2 °F 57.2 °F 100% 30.05 in 10.0 mi Calm Calm - N/A   Partly Cloudy